Regional Weather Roundup
Issued by NWS Northern Indiana

Home | Current Version | Previous Version | Graphics & Text | Print | Product List | Glossary On
Versions: 1 2 3 4 5 6 7 8 9 10 11 12 13 14 15 16 17 18 19 20 21 22 23 24 25 26 27 28 29 30 31 32 33 34 35 36 37 38 39 40 41 42 43 44 45 46 47 48 49 50
000
ASUS43 KIWX 300710
RWRIWX

KIWX WEATHER ROUNDUP
NATIONAL WEATHER SERVICE NORTHERN INDIANA
200 AM EST FRI JAN 30 2015

NOTE: "FAIR" INDICATES FEW OR NO CLOUDS BELOW 12,000 FEET WITH NO
SIGNIFICANT WEATHER AND/OR OBSTRUCTIONS TO VISIBILITY.

* THESE STATIONS ARE NOT UNDER NWS QUALITY CONTROL. THEY ALSO MAY NOT
  REPORT WEATHER SUCH AS PRECIPITATION OR FOG.

INZ001>027-300800-
NORTHERN INDIANA

CITY           SKY/WX    TMP DP  RH WIND       PRES   REMARKS
GARY*          FLURRIES  32  16  52 N23G31    30.33R WCI  19
VALPARAISO     CLOUDY    29  19  66 N14G25    30.29R WCI  18
MICHIGAN CITY* CLOUDY    30  16  55 N22G31    30.30R WCI  17
LAPORTE*       LGT RAIN  30  23  75 N20G26    30.28R WCI  18
KNOX*          CLOUDY    30  16  55 N20G25    30.27R WCI  18
SOUTH BEND     CLOUDY    27  19  72 N20G28    30.26R WCI  13
GOSHEN         CLOUDY    27  18  69 NW16G26   30.23R WCI  15
MONTICELLO*    CLOUDY    32  24  73 N23G30    30.26R WCI  19
LOGANSPORT*    FLURRIES  32  27  80 NW16G22   30.25R WCI  21
ROCHESTER*     FLURRIES  32  27  80 N13G24    30.25R WCI  22
WARSAW*        FLURRIES  28  21  74 N23       30.22R WCI  14
ANGOLA*        CLOUDY    25  16  68 N18G29    30.18R WCI  11
FORT WAYNE     FLURRIES  30  22  72 NW15G25   30.19R WCI  19
HUNTINGTON*    CLOUDY    31  20  65 N10G16    30.20R WCI  22
PERU/GRISSOM   FLURRIES  32  25  74 NW16      30.23R WCI  21
MARION*        CLOUDY    32  25  77 NW13G18   30.21R WCI  22

$$
INZ028>050-300800-
CENTRAL INDIANA

CITY           SKY/WX    TMP DP  RH WIND       PRES   REMARKS
LAFAYETTE      CLOUDY    33  23  66 NW10      30.28R WCI  25
KOKOMO*        CLOUDY    32  23  69 NW20      30.22R WCI  20
MUNCIE*        CLOUDY    32  25  75 NW15      30.20R WCI  22
INDIANAPOLIS   FLURRIES  31  25  78 NW13      30.26R WCI  21

$$
MIZ043>046-050>051-056>058-064>065-071>073-077>080-300800-
SOUTHWEST LOWER MICHIGAN

CITY           SKY/WX    TMP DP  RH WIND       PRES   REMARKS
BATTLE CREEK   CLOUDY    24  13  62 NW13G23   30.22R WCI  12
BENTON HARBOR  CLOUDY    27  16  63 N18G26    30.29R WCI  14
COLDWATER*     MOCLDY    22  13  69 NW15G25   30.20R WCI   9
HILLSDALE*     MOCLDY    23  15  73 N15G23    30.15R WCI  10
HOLLAND        PTCLDY    24  13  62 N8G23     30.29R WCI  15
GRAND RAPIDS   CLOUDY    22  13  68 NW21G32   30.25R WCI   6
KALAMAZOO      PTCLDY    22  11  62 N21G28    30.24R WCI   6
STURGIS*       CLOUDY    25  16  68 N12G25    30.22R WCI  14
THREE RIVERS*  CLOUDY    24  13  62 N16G28    30.24R WCI  11

$$
OHZ001>008-015>018-024>025-300800-
NORTHWEST OHIO

CITY           SKY/WX    TMP DP  RH WIND       PRES   REMARKS
WAUSEON*       CLOUDY    28  19  69 N17G24    30.15R WCI  16
DEFIANCE       CLOUDY    30  22  72 NW23      30.17R WCI  17
FINDLAY        LGT SNOW  29  25  85 NW10      30.12R FOG     WCI  20
TOLEDO EXPRESS CLOUDY    27  16  63 NW21G29   30.14R WCI  13
TOLEDO METCALF CLOUDY    29  17  61 NW28G37   30.14R WCI  14
LIMA           CLOUDY    32  25  75 NW21G28   30.13R WCI  20

$$
AND FOR LAKE MICHIGAN COASTAL AND OPEN LAKE BUOY OBSERVATIONS

STATION/POSITION TEMP    WIND        PRES    VSBY  WAVE
                 AIR SEA DIR/SP/G                  HT/PER
                 (F)     (DEG/KT/KT) (MB)    (MI)  (FT/S)
CALUMET HARBOR           340/ 16/ 23   N/A
MICHIGAN CITY     29     350/ 32/ 37   N/A
SAINT JOSEPH      29     340/ 22/ 31 1025.7R

$$
&&


USA.gov is the U.S. government's official web portal to all federal, state and local government web resources and services.